{"data":{"norad_id":69207,"epoch":"2026-09-19T22:40:38.535744Z","epoch_age_seconds":74883,"freshness":"FRESH","line1":"1 69207U 26114AB  26262.94489046  .00015033  00000+0  45508-3 0  9996","line2":"2 69207  53.1581 116.1226 0003915  15.3248 344.7872 15.34402795 19363","mean_motion":15.34402795,"eccentricity":0.0003915,"inclination_deg":53.1581,"raan_deg":116.1226,"arg_perigee_deg":15.3248,"mean_anomaly_deg":344.7872,"bstar":0.00045508,"rev_number":1936,"period_min":93.847587132426,"perigee_km":460.01674718897,"apogee_km":465.37311859242,"semimajor_km":6840.8319328907,"source":"CELESTRAK","updated_at":"2026-09-20T09:00:44.100858Z"}}